Location: Beang
(6.6177°N, 10.9863°W)
Time: 14:19:37
(UTC+00:00)

Cosmos 1727 Rocket - Pass Details

Date: 07 June 2020
Orbit: 960 x 997 km, 82.9° (Epoch: 07 July)

Event Time Altitude Azimuth Distance (km) Brightness Sun altitude
Rises 04:37:23 0° 352° (N) 3,630 7.3 -25.6°
Reaches altitude 10° 04:39:52 10° 350° (N) 2,687 6.5 -25.1°
Maximum altitude 04:45:58 69° 267° (W) 1,024 3.8 -23.7°
Enters shadow 04:48:58 32° 193° (SSW) 1,601 4.8 -23.1°
